sat.trackr.live / text

‹ back to catalog

KUIPER-00647

NORAD 69790 · 2026-151AD

PAYLOAD ACTIVE UNKNOWN

§ Identity

Operator
Country
US
Launch date
2026-07-02
Launch site
AFETR
Launch vehicle
Mass (kg)
RCS (m²)

External: N2YO · Heavens-Above · Gunter

§ Orbital elements

Epoch: 2026-09-20T04:00:03.000096Z

Period
97.12 min
Inclination
51.9004°
Eccentricity
0.0006263
Mean motion
14.82775822 rev/d
Perigee alt
616.2 km
Apogee alt
625.0 km
Semi-major
6,998.7 km
B*
-7.9225e-3
RAAN
225.3056°
Arg perigee
64.0131°
Mean anomaly
139.7513°
Rev number
451

§ Raw data

KUIPER-006471 69790U 26151AD  26263.16670139 -.00064295  00000+0 -79225-2 0  99922 69790  51.9004 225.3056 0006263  64.0131 139.7513 14.82775822  4512

JSON: /api/v1/satellites/69790 · /tle

For live sub-satellite position, see the globe view (requires WebGL).

§ Visibility from observer

Set your observer location to see the next 7 days of passes ≥ 10°. The values pass through the URL so the page stays shareable.

No JS? Fill the form by hand. The geolocation button needs JavaScript.